Location: *
(51.0333°S, 178.4667°E)
Time: 11:00:25
(UTC+00:00)

MOS 1 Rocket - Pass Details

Date: 15 November 2019
Orbit: 614 x 830 km, 97.4° (Epoch: 05 December)

Event Time Altitude Azimuth Distance (km) Brightness Sun altitude
Exits shadow 08:20:01 - 15° (NNE) 3,126 6.2 -6.7°
Reaches altitude 10° 08:21:48 10° 15° (NNE) 2,426 5.6 -6.9°
Maximum altitude 08:27:15 89° 294° (WNW) 849 3.8 -7.5°
Drops below altitude 10° 08:32:49 10° 193° (SSW) 2,473 7.1 -8.1°
Sets 08:35:11 0° 193° (SSW) 3,404 7.9 -8.4°
